GM4ZUK-13 Weather Reports


time (UTC)temp
C
wind
direction
speed
KPH
gust
KPH
rain 1hr
cm
rain 24hr
cm
rain mn
cm
humidity
%
barometer
mb
20260506153357 8 121 8.0 17.7 0.00 0.00 0.00 71 1023.0
20260506152459 8 132 6.4 17.7 0.00 0.00 0.00 71 1023.2
20260506151557 8 136 9.7 17.7 0.00 0.00 0.00 70 1023.1
20260506150657 8 126 9.7 17.7 0.00 0.00 0.00 69 1023.3
20260506150009 9 132 6.4 11.3 0.00 0.00 0.00 68 1023.0
20260506145106 9 133 3.2 17.7 0.00 0.00 0.00 69 1023.4
20260506143959 9 149 4.8 14.5 0.00 0.00 0.00 66 1023.3
20260506143057 9 125 9.7 22.5 0.00 0.00 0.00 66 1023.3
20260506142157 9 118 12.9 22.5 0.00 0.00 0.00 65 1023.5
20260506141259 10 134 6.4 17.7 0.00 0.00 0.00 66 1023.5
20260506140357 10 134 6.4 17.7 0.00 0.00 0.00 65 1023.5
20260506135710 10 129 6.4 17.7 0.00 0.00 0.00 67 1023.4
20260506134557 10 121 9.7 17.7 0.00 0.00 0.00 66 1023.5
20260506133657 8 135 12.9 17.7 0.00 0.00 0.00 66 1023.6
20260506132757 9 145 6.4 17.7 0.00 0.00 0.00 67 1023.5
20260506131857 9 103 6.4 20.9 0.00 0.00 0.00 65 1023.5
20260506131212 10 112 6.4 20.9 0.00 0.00 0.00 65 1023.5
20260506130057 10 101 12.9 20.9 0.00 0.00 0.00 65 1023.5
20260506125158 10 112 11.3 20.9 0.00 0.00 0.00 67 1023.6
20260506124509 10 112 8.0 14.5 0.00 0.00 0.00 66 1023.6
20260506123357 10 125 6.4 17.7 0.00 0.00 0.00 67 1023.5
20260506122459 10 118 9.7 17.7 0.00 0.00 0.00 65 1023.6
20260506121557 10 114 6.4 17.7 0.00 0.00 0.00 65 1023.8
20260506120659 10 127 6.4 17.7 0.00 0.00 0.00 65 1023.9
20260506115757 9 118 8.0 17.7 0.00 0.00 0.00 67 1023.6
20260506115108 9 121 12.9 17.7 0.00 0.00 0.00 65 1023.6
20260506113957 10 122 9.7 17.7 0.00 0.00 0.00 66 1024.0
20260506113057 10 138 6.4 14.5 0.00 0.00 0.00 63 1023.9
20260506112159 10 122 8.0 17.7 0.00 0.00 0.00 66 1024.1
20260506111257 9 128 8.0 17.7 0.00 0.00 0.00 67 1024.0
20260506110357 10 115 6.4 17.7 0.00 0.00 0.00 69 1024.0
20260506105457 10 126 6.4 12.9 0.00 0.00 0.00 68 1024.0
20260506104600 10 118 6.4 12.9 0.00 0.00 0.00 67 1024.2
20260506103907 10 122 6.4 12.9 0.00 0.00 0.00 69 1024.1
20260506102757 10 128 4.8 14.5 0.00 0.00 0.00 66 1024.3
20260506101858 8 125 9.7 14.5 0.00 0.00 0.00 66 1024.2
20260506100957 9 114 6.4 14.5 0.00 0.00 0.00 65 1024.2
20260506100058 9 123 3.2 12.9 0.00 0.00 0.00 64 1024.4
20260506095157 10 105 4.8 11.3 0.00 0.00 0.00 64 1024.3
20260506094258 10 337 0.0 3.2 0.00 0.00 0.00 61 1024.5
20260506093357 10 337 0.0 6.4 0.00 0.00 0.00 60 1024.7
20260506092457 10 337 0.0 3.2 0.00 0.00 0.00 56 1024.8
20260506091557 10 337 0.0 6.4 0.00 0.00 0.00 56 1024.7
20260506090911 9 337 0.0 6.4 0.00 0.00 0.00 55 1024.8
20260506085758 10 337 1.6 3.2 0.00 0.00 0.00 56 1025.0
20260506084857 9 0 0.0 0.0 0.00 0.00 0.00 58 1024.8
20260506083958 10 0 0.0 0.0 0.00 0.00 0.00 63 1025.0
20260506083059 9 0 0.0 0.0 0.00 0.00 0.00 63 1025.1
20260506082158 8 0 0.0 0.0 0.00 0.00 0.00 66 1025.1
20260506081257 8 0 0.0 0.0 0.00 0.00 0.00 70 1025.1
20260506080357 7 0 0.0 0.0 0.00 0.00 0.00 71 1025.1
20260506073011 6 0 0.0 0.0 0.00 0.03 0.00 75 1025.6
20260506071857 5 0 0.0 0.0 0.00 0.03 0.00 79 1025.5
20260506070959 5 0 0.0 0.0 0.00 0.03 0.00 82 1025.5
20260506070308 4 0 0.0 0.0 0.00 0.03 0.00 87 1025.5
20260506062457 1 360 0.0 3.2 0.00 0.05 0.00 96 1025.6
20260506061810 1 360 0.0 3.2 0.00 0.05 0.00 96 1025.7
20260506060657 1 0 0.0 0.0 0.00 0.05 0.00 97 1025.7
20260506051257 -2 0 0.0 0.0 0.00 0.05 0.00 98 1025.8
20260506050357 -2 0 0.0 0.0 0.00 0.05 0.00 97 1025.9
20260506044558 -2 0 0.0 0.0 0.00 0.05 0.00 97 1025.8
20260506043659 -2 0 0.0 0.0 0.00 0.05 0.00 97 1025.9
20260506042757 -2 0 0.0 0.0 0.00 0.05 0.00 97 1025.7
20260506041857 -2 0 0.0 0.0 0.00 0.05 0.00 97 1025.9
20260506040958 -2 0 0.0 0.0 0.00 0.05 0.00 97 1025.6
20260506040057 -2 0 0.0 0.0 0.00 0.05 0.00 97 1025.9
20260506035157 -2 0 0.0 0.0 0.00 0.05 0.00 97 1025.7
20260506034258 -2 0 0.0 0.0 0.00 0.05 0.00 97 1026.0
20260506033359 -2 0 0.0 0.0 0.00 0.05 0.00 97 1026.1
20260506032457 -2 0 0.0 0.0 0.00 0.05 0.00 97 1025.7
20260506031807 -2 0 0.0 0.0 0.00 0.05 0.00 97 1025.9
20260506030657 -2 0 0.0 0.0 0.00 0.05 0.00 97 1025.8
20260506025757 -2 0 0.0 0.0 0.00 0.05 0.00 97 1025.8
20260506024858 -2 0 0.0 0.0 0.00 0.05 0.00 96 1025.9
20260506023958 -1 0 0.0 0.0 0.00 0.05 0.00 97 1026.0
20260506023057 -1 0 0.0 0.0 0.00 0.05 0.00 96 1025.8
20260506022158 -2 360 0.0 3.2 0.00 0.05 0.00 96 1025.7
20260506021259 -1 360 0.0 3.2 0.00 0.05 0.00 96 1025.9
20260506020359 -2 360 0.0 3.2 0.00 0.05 0.00 96 1026.0
20260506014553 -1 0 0.0 0.0 0.00 0.05 0.00 96 1025.8
20260506013653 -1 0 0.0 0.0 0.00 0.05 0.00 95 1026.1
20260506012754 -1 0 0.0 0.0 0.00 0.05 0.00 95 1025.9
20260506011854 -1 0 0.0 0.0 0.00 0.05 0.00 95 1026.0
20260506010953 -1 0 0.0 0.0 0.00 0.05 0.00 95 1026.2
20260506010054 -1 0 0.0 0.0 0.00 0.05 0.00 95 1026.0
20260506005406 -1 0 0.0 0.0 0.00 0.05 0.00 95 1026.0
20260506004254 -1 0 0.0 0.0 0.00 0.05 0.00 95 1026.1
20260506003353 -1 0 0.0 0.0 0.00 0.05 0.00 95 1026.2
20260506002456 -1 0 0.0 0.0 0.00 0.05 0.00 95 1026.1
20260506001553 -1 0 0.0 0.0 0.00 0.05 0.00 94 1026.1
20260506000654 0 0 0.0 0.0 0.00 0.05 0.00 94 1026.2
20260505235754 -1 0 0.0 0.0 0.00 0.05 0.00 94 1026.1
20260505234854 -1 0 0.0 0.0 0.00 0.05 0.00 93 1026.2
20260505233953 0 0 0.0 0.0 0.00 0.05 0.00 94 1026.3
20260505233054 0 0 0.0 0.0 0.00 0.05 0.00 93 1026.4
20260505232405 0 0 0.0 0.0 0.00 0.05 0.00 93 1026.4
20260505231254 0 0 0.0 0.0 0.00 0.05 0.00 92 1026.3
20260505230353 0 0 0.0 0.0 0.00 0.05 0.00 92 1026.5
20260505225454 0 0 0.0 0.0 0.00 0.05 0.05 91 1026.2
20260505224553 0 0 0.0 0.0 0.00 0.05 0.05 91 1026.3
20260505223907 0 0 0.0 0.0 0.00 0.05 0.05 91 1026.3
20260505222755 0 360 0.0 3.2 0.00 0.05 0.05 90 1026.4
20260505221854 0 0 0.0 0.0 0.00 0.05 0.05 90 1026.4
20260505220953 0 0 0.0 0.0 0.00 0.05 0.05 90 1026.4
20260505220306 0 0 0.0 0.0 0.00 0.05 0.05 89 1026.3
20260505215154 0 0 0.0 0.0 0.00 0.05 0.05 88 1026.3
20260505214253 0 0 0.0 0.0 0.00 0.05 0.05 87 1026.4
20260505213354 1 0 0.0 0.0 0.00 0.05 0.05 86 1026.2
20260505212453 1 0 0.0 0.0 0.00 0.05 0.05 85 1026.2
20260505211808 1 0 0.0 0.0 0.00 0.10 0.05 84 1026.3
20260505210653 1 0 0.0 0.0 0.00 0.10 0.05 81 1026.3
20260505205753 2 0 0.0 0.0 0.00 0.10 0.05 80 1026.1
20260505204853 2 0 0.0 0.0 0.00 0.13 0.05 80 1026.4
20260505203953 3 0 0.0 0.0 0.00 0.13 0.05 79 1026.3
20260505203054 3 360 0.0 3.2 0.00 0.13 0.05 77 1026.1
20260505202153 5 360 1.6 3.2 0.00 0.13 0.05 73 1025.9
20260505201504 5 360 0.0 3.2 0.00 0.13 0.05 69 1026.1
20260505200355 5 360 0.0 6.4 0.00 0.13 0.05 67 1025.9
20260505195454 6 353 0.0 6.4 0.00 0.13 0.05 64 1026.1
20260505194555 6 340 3.2 6.4 0.00 0.13 0.05 64 1025.9
20260505193655 6 359 3.2 6.4 0.00 0.13 0.05 63 1026.0
20260505192754 6 360 3.2 6.4 0.00 0.13 0.05 65 1025.9
20260505191855 6 19 3.2 9.7 0.00 0.13 0.05 64 1025.7
20260505191206 6 9 3.2 9.7 0.00 0.13 0.05 63 1025.6
20260505190054 7 359 1.6 9.7 0.00 0.13 0.05 59 1025.6
20260505185153 7 359 4.8 9.7 0.00 0.13 0.05 56 1025.5
20260505184253 7 355 3.2 12.9 0.00 0.13 0.05 57 1025.4
20260505183354 7 356 6.4 17.7 0.00 0.13 0.05 56 1025.5
20260505182453 7 6 11.3 17.7 0.00 0.13 0.05 53 1025.5
20260505181554 8 347 3.2 12.9 0.00 0.13 0.05 54 1025.6
20260505180655 7 345 6.4 12.9 0.00 0.13 0.05 54 1025.4
20260505175753 8 352 6.4 20.9 0.00 0.13 0.05 54 1025.5
20260505174853 8 1 3.2 17.7 0.00 0.13 0.05 52 1025.4
20260505173953 8 5 6.4 12.9 0.00 0.13 0.05 52 1025.4
20260505173054 8 3 3.2 14.5 0.00 0.13 0.05 51 1025.6
20260505172153 8 350 6.4 11.3 0.00 0.13 0.05 46 1025.7
20260505171253 8 342 3.2 17.7 0.00 0.13 0.05 46 1025.5
20260505170355 8 355 4.8 24.1 0.00 0.13 0.05 44 1025.3
20260505165458 8 348 8.0 22.5 0.00 0.13 0.05 44 1025.4
20260505164558 9 5 8.0 17.7 0.00 0.13 0.05 44 1025.4
20260505163905 8 349 6.4 20.9 0.00 0.13 0.05 47 1025.2
20260505162754 8 343 6.4 17.7 0.00 0.13 0.05 45 1025.2
20260505161853 8 354 8.0 12.9 0.00 0.13 0.05 47 1025.3
20260505160953 8 337 6.4 17.7 0.00 0.13 0.05 46 1025.4